Terminal Aerodrome Forecast
Issued by NWS

Home | Current Version | Previous Version | Graphics & Text | Print | Product List | Glossary On
Versions: 1 2 3 4 5 6 7 8 9 10 11 12 13 14 15 16 17 18 19 20 21 22 23 24 25 26 27 28 29
783
FTUS43 KLOT 291503 AAA
TAFMDW
TAF AMD
KMDW 291503Z 2915/3012 04010KT P6SM OVC015
     FM292200 05010KT P6SM SCT025
     FM300900 08012KT P6SM SCT025 BKN180=

USA.gov is the U.S. government's official web portal to all federal, state and local government web resources and services.